Back to catalog

QIANFAN-71

AliveCommunicationsPO
NORAD 62801·PAYLOAD·🇨🇳 China

Launched Jan 23, 2025 from Taiyuan Satellite Launch Center

Loading…

Next Passes (next 24 hours)

TLE

FreshSource: Space-Track

Epoch: Sep 14, 2026, 14:15 UTC

1 62801U 25016S   26257.59443225  .00000037  00000-0  39017-4 0  9991
2 62801  88.9659  74.4214 0013854 272.0616  87.8949 13.51026560 84489

Track QIANFAN-71 in real time with AllMySat

Download on the App Store